Temperature
13 14 14 14 15 14 14 14 14 13 12 12 11 10 10 10 10 10 10 9 9 9 8 8 8 8 8 8 7 7 7 7 6 6 6 7 7 8 8 8 7 7 7
13 13 13 14 14 14 14 14 13 13 12 12 11 11 10 10 10 10 10 9 9 9 9 9 8 8 8 8 7 7 6 6 6 5 4 4 5 6 6 7 7 7 6
13 13 13 13 14 14 14 14 13 13 12 12 12 11 10 10 10 9 9 9 9 9 8 8 8 8 7 7 7 6 6 6 6 5 4 4 4 4 5 5 6 6 5
13 13 13 13 13 13 13 13 13 12 12 12 11 11 10 9 9 9 8 8 8 8 8 8 7 7 7 7 6 6 6 5 5 5 5 4 4 3 3 4 4 5 4
13 13 12 13 13 13 13 13 12 12 12 11 11 10 10 9 9 8 8 7 7 7 7 7 7 7 7 6 6 6 6 5 5 5 5 4 4 3 2 2 3 4 4
13 12 12 12 13 12 12 12 12 12 11 11 11 10 10 9 8 8 7 7 7 7 6 6 6 6 6 6 6 6 5 5 5 4 4 3 3 3 3 2 2 2 2
13 12 12 12 12 12 12 12 11 11 11 10 10 10 9 8 8 7 7 7 7 6 6 6 6 6 6 6 5 5 5 5 4 4 3 3 2 2 2 1 1 1 1
13 12 12 12 12 12 11 11 11 11 10 10 9 9 8 8 7 7 7 7 6 6 6 6 6 6 6 5 5 5 4 4 3 3 3 2 2 2 1 1 0 0 0
13 12 11 11 11 11 11 11 10 10 10 9 9 8 8 7 7 7 7 6 6 6 6 6 6 6 5 5 5 4 4 3 3 3 2 2 1 1 1 0 -0 -0 -1
13 12 11 11 11 11 10 10 10 10 9 9 8 8 7 7 7 7 6 6 6 6 6 5 5 5 5 5 4 4 3 2 2 2 1 1 1 0 -0 -1 -1 -1 -1
13 12 11 11 10 10 10 10 10 9 9 8 8 7 7 7 6 6 6 5 5 5 5 5 5 5 4 4 3 3 2 2 1 1 0 -0 -1 -1 -1 -2 -2 -2 -2
14 12 11 10 10 10 10 9 9 9 8 8 7 7 6 6 6 6 5 5 5 5 5 4 4 4 3 3 2 2 1 1 0 -0 -1 -1 -2 -2 -3 -3 -3 -3 -3
13 12 11 10 9 9 9 9 8 8 8 7 7 6 6 6 5 5 5 5 5 4 4 4 3 3 2 2 1 1 0 -1 -1 -2 -2 -3 -3 -4 -4 -4 -4 -4 -4
13 12 10 10 9 8 8 8 8 7 7 7 6 6 6 5 5 5 5 4 4 4 3 3 2 2 1 1 0 -0 -1 -2 -2 -3 -3 -4 -4 -5 -5 -5 -5 -5 -4
12 11 10 9 8 8 8 7 7 7 6 6 6 5 5 5 5 4 4 4 3 3 2 2 1 1 0 -0 -1 -2 -2 -3 -3 -3 -4 -4 -5 -5 -5 -5 -4 -4 -4
11 10 10 9 8 8 7 7 7 6 6 5 5 5 5 4 4 4 3 3 3 2 1 1 0 -0 -0 -1 -2 -2 -3 -3 -4 -4 -4 -5 -5 -5 -5 -5 -4 -4 -4
11 10 9 8 8 7 7 7 6 6 5 5 5 5 4 4 3 3 3 2 2 1 0 -0 -0 -1 -1 -2 -2 -3 -3 -4 -4 -5 -5 -5 -5 -5 -5 -5 -5 -5 -5
10 9 8 8 7 7 6 6 5 5 5 5 4 4 3 3 3 2 2 1 1 0 -0 -1 -1 -1 -2 -2 -3 -4 -4 -4 -5 -5 -5 -5 -5 -5 -5 -5 -5 -4 -4
9 8 8 7 7 6 6 5 5 5 4 4 4 3 3 2 2 2 1 0 -0 -1 -1 -1 -2 -2 -3 -3 -4 -4 -4 -5 -5 -5 -5 -5 -5 -5 -5 -5 -5 -4 -4
8 8 7 6 6 5 5 5 5 4 4 3 3 3 2 2 1 1 0 -0 -1 -1 -2 -2 -2 -3 -3 -4 -4 -5 -5 -5 -5 -5 -5 -6 -6 -5 -5 -5 -5 -5 -4
7 7 6 6 5 5 5 4 4 4 3 3 2 2 2 1 1 0 -0 -1 -1 -2 -2 -2 -3 -3 -4 -5 -5 -5 -6 -6 -6 -6 -6 -6 -6 -6 -5 -5 -5 -4 -4
6 6 6 5 5 4 4 4 4 3 3 2 2 2 1 0 -0 -1 -1 -1 -2 -2 -3 -3 -4 -4 -5 -5 -6 -6 -6 -6 -6 -6 -6 -6 -6 -6 -5 -5 -5 -5 -5
6 5 5 5 4 4 4 3 3 2 2 2 1 1 0 -0 -1 -1 -2 -2 -3 -3 -3 -4 -4 -5 -5 -6 -6 -6 -7 -7 -6 -6 -6 -6 -6 -6 -6 -6 -6 -5 -5
5 5 4 4 4 3 3 3 2 2 1 1 0 -0 -1 -1 -2 -2 -3 -3 -3 -4 -4 -5 -5 -5 -6 -6 -6 -6 -6 -7 -7 -6 -6 -6 -6 -6 -6 -6 -6 -6 -6
4 4 4 3 3 3 2 2 2 1 0 -0 -0 -1 -1 -2 -2 -3 -3 -4 -4 -5 -5 -5 -6 -6 -6 -6 -6 -6 -6 -6 -7 -6 -6 -6 -7 -7 -6 -6 -6 -6 -6
4 3 3 3 3 2 2 2 1 0 -1 -1 -1 -2 -2 -3 -3 -4 -4 -4 -5 -5 -6 -6 -6 -6 -6 -7 -7 -7 -7 -7 -7 -7 -7 -7 -7 -7 -7 -7 -7 -6 -6
Wind_Speed
8 8 8 9 9 9 9 8 7 6 5 3 3 3 2 1 1 1 2 3 4 5 4 3 4 4 4 5 5 4 5 5 4 5 6 7 10 13 12 9 9 11 16
8 8 8 8 8 8 8 8 8 7 6 4 3 3 2 1 1 1 0 2 3 3 3 3 3 4 4 5 5 5 4 4 3 3 4 6 6 6 8 6 7 8 9
10 9 9 9 8 8 7 8 8 7 7 6 4 3 2 0 0 0 0 1 1 2 2 3 4 4 3 4 6 5 6 5 4 4 5 4 5 5 5 7 7 6 6
10 10 9 9 8 7 7 8 8 8 6 5 4 3 2 2 1 1 1 1 2 2 1 3 4 4 3 5 6 5 5 5 5 5 5 7 7 5 6 5 5 7 8
10 10 10 9 8 7 7 7 8 7 6 5 4 3 4 2 2 2 2 2 1 2 3 3 3 4 4 5 6 6 6 5 6 6 6 7 6 8 9 11 7 7 8
11 10 9 10 8 6 6 7 8 7 5 5 5 5 4 3 3 3 3 3 3 1 1 2 3 5 5 5 6 6 7 7 8 7 7 7 7 7 8 11 11 11 8
11 11 10 9 9 8 6 6 7 6 5 5 4 4 3 2 2 3 3 3 3 3 3 2 3 4 6 7 6 6 8 8 9 9 8 8 9 8 9 12 15 14 10
11 11 11 10 9 9 7 6 7 6 5 4 3 3 3 2 2 2 3 3 3 3 3 5 6 7 8 8 6 6 8 8 9 10 10 8 9 8 8 9 12 18 15
12 11 11 10 10 9 7 7 7 6 5 4 3 4 3 2 2 3 3 3 4 4 5 6 6 7 8 7 7 7 8 8 8 9 10 9 8 8 8 8 9 12 20
12 11 10 10 9 8 7 7 7 6 4 3 3 1 2 2 3 4 5 5 5 4 6 7 7 8 7 7 8 8 8 9 9 8 9 10 9 8 8 8 9 9 14
12 11 10 9 9 8 7 6 6 5 4 2 2 1 2 2 3 4 5 5 5 6 7 8 8 9 9 9 9 9 9 10 10 10 10 11 10 9 8 8 9 9 10
11 11 10 10 9 8 7 7 6 5 3 2 1 2 2 3 4 5 6 6 7 7 7 8 9 9 10 9 9 10 10 10 11 11 10 11 11 12 10 10 11 10 10
11 10 10 9 9 8 7 7 6 5 3 2 1 3 4 4 5 6 6 7 7 8 8 9 9 10 10 10 10 10 11 11 11 11 11 12 13 15 13 13 13 12 14
10 10 9 9 8 8 7 6 5 4 3 1 2 3 4 5 6 6 7 8 8 9 9 10 10 10 10 10 11 11 11 12 12 12 12 14 14 16 16 16 15 14 15
10 10 9 8 8 7 6 5 4 3 2 2 3 5 5 5 6 7 8 8 9 10 10 11 11 10 10 10 11 10 11 12 12 12 12 14 19 24 21 18 14 13 14
10 9 9 8 8 7 6 5 3 3 2 3 4 5 6 6 7 8 8 9 9 10 10 11 11 11 10 20 25 20 12 10 11 12 11 13 18 22 27 29 28 23 17
9 9 8 7 7 6 5 4 2 1 2 4 5 6 7 7 8 8 9 9 10 10 11 11 11 11 13 23 27 27 17 12 11 12 12 14 16 22 14 21 27 25 29
9 8 8 7 6 5 4 3 1 1 3 5 6 7 7 8 8 8 9 10 10 10 10 10 11 11 14 26 28 28 17 11 11 12 13 15 14 16 18 15 14 15 17
9 8 7 7 5 4 3 2 2 3 5 6 7 7 7 8 8 9 10 10 10 10 10 10 11 12 15 24 27 27 12 11 12 12 13 16 15 24 29 20 16 17 15
8 8 6 5 4 3 3 1 3 4 6 7 7 7 7 8 10 11 11 9 9 10 10 11 10 12 12 21 26 26 10 11 12 11 12 21 23 27 29 18 15 18 16
8 7 5 4 3 2 1 2 4 6 7 7 7 8 8 9 10 10 9 10 10 10 10 11 10 10 13 20 24 25 13 11 13 12 11 12 25 29 30 27 17 20 20
6 5 4 2 2 1 1 4 6 7 7 7 8 9 9 9 9 10 10 9 9 10 10 11 12 9 10 16 21 26 25 24 16 13 12 14 28 30 31 24 23 28 24
5 4 3 1 1 2 3 5 7 7 7 8 9 9 9 9 9 9 10 9 9 9 9 10 11 11 8 11 24 27 28 29 19 15 24 28 31 29 21 23 27 22 11
4 3 2 2 3 4 4 5 7 7 8 9 9 9 9 9 9 8 8 8 8 9 9 10 12 12 10 9 9 10 14 20 18 16 20 27 26 21 20 19 15 9 8
3 2 2 3 5 5 6 7 7 7 8 9 9 9 8 9 9 9 8 10 9 11 13 11 11 13 14 15 25 22 14 13 16 18 14 11 10 9 8 9 8 7 7
3 2 3 4 5 6 7 8 7 7 8 8 8 7 7 8 8 10 11 14 16 23 25 24 23 18 23 30 31 30 30 30 29 21 12 11 10 10 10 10 9 7 7
Wind_Direction
108 99 92 86 84 87 98 107 112 108 105 106 114 117 136 177 199 231 273 282 266 261 254 253 269 277 274 269 264 265 275 279 279 297 296 279 259 255 255 249 247 245 246
120 113 107 102 100 100 103 106 108 106 99 96 93 90 94 82 80 47 7 307 298 281 260 247 252 258 264 273 273 267 269 274 268 262 306 310 307 277 262 259 248 245 242
137 126 112 103 98 99 104 106 104 100 98 101 97 88 84 52 84 151 153 263 289 316 295 275 269 271 262 262 262 257 257 266 267 222 220 264 277 313 294 279 275 268 261
134 130 123 112 104 100 100 103 105 104 105 107 101 111 101 91 99 103 178 245 199 185 281 296 293 285 276 272 267 255 247 248 261 263 237 234 238 271 297 283 284 295 284
139 133 127 124 115 108 107 109 106 104 103 98 90 70 61 48 45 21 13 346 293 180 206 234 269 278 271 269 271 275 265 251 248 248 253 260 261 248 262 281 274 265 259
141 135 129 125 121 120 118 118 113 110 107 100 96 82 64 27 22 12 6 346 329 311 270 236 264 271 267 262 262 262 263 258 257 255 249 249 251 254 257 273 280 279 272
150 149 149 145 142 140 136 130 124 120 112 100 90 95 83 28 26 22 353 337 327 326 323 332 294 283 276 272 265 261 260 258 258 257 256 253 253 252 258 271 281 283 280
161 161 161 153 149 149 148 136 123 114 102 92 77 74 78 60 28 3 331 314 306 301 307 309 293 287 284 281 273 269 263 260 257 260 259 259 259 257 256 263 278 287 287
165 164 160 153 151 153 151 137 127 116 102 88 72 51 35 40 8 330 311 303 297 292 299 296 287 285 285 281 278 271 269 267 263 263 264 264 264 260 260 259 258 274 287
164 162 159 154 151 148 136 124 120 117 108 86 80 56 359 16 343 314 303 297 298 298 299 294 290 288 284 281 282 279 276 276 273 270 272 272 272 269 264 262 262 259 271
166 162 159 152 143 138 138 134 128 123 117 94 65 15 351 339 315 299 293 295 294 294 292 290 290 289 286 284 283 281 284 285 285 285 285 283 284 283 278 273 269 266 265
161 157 153 146 145 149 150 144 141 135 130 112 43 327 314 302 296 294 298 302 300 296 292 290 288 286 286 285 285 286 288 286 288 289 290 291 294 290 287 283 278 275 270
153 150 149 150 153 155 152 150 151 148 142 130 299 301 302 304 302 301 303 303 298 293 289 288 286 286 285 285 282 281 280 279 279 281 283 285 287 286 284 282 280 278 277
151 151 153 153 153 154 153 152 151 145 146 167 260 284 289 293 294 296 295 292 289 288 287 284 281 280 279 279 279 278 276 275 273 272 272 277 278 279 280 280 276 274 273
155 156 156 153 150 150 150 146 145 150 159 217 261 269 275 282 286 286 286 285 285 284 281 281 279 277 279 278 277 274 270 270 272 271 270 273 281 283 284 282 276 271 272
158 154 151 147 149 152 151 145 160 173 183 241 263 271 278 280 280 280 282 283 283 282 281 280 280 280 284 293 298 299 289 277 276 280 279 281 285 287 288 288 288 285 281
151 150 148 145 143 143 142 154 172 179 231 259 268 272 273 275 276 279 284 283 283 283 283 282 281 282 287 298 302 303 301 290 285 286 288 292 292 293 285 285 286 285 284
139 139 136 134 131 129 137 148 170 234 258 265 271 273 274 276 280 282 282 282 281 282 284 286 287 288 293 302 304 305 302 289 285 285 286 286 285 284 286 279 274 270 272
122 122 122 125 128 140 154 165 233 263 271 274 277 278 280 284 286 284 282 282 284 286 287 287 288 289 295 302 305 304 295 291 287 285 285 288 286 287 292 291 284 282 278
101 106 109 118 139 157 148 185 259 273 277 278 279 283 285 285 284 281 282 283 285 285 286 286 285 288 292 302 307 307 298 295 293 289 284 289 291 292 294 292 286 286 285
108 115 124 140 158 149 154 248 268 272 275 281 286 286 283 281 281 282 282 284 285 285 287 289 289 289 294 303 305 305 305 297 296 297 295 290 295 296 296 296 291 288 290
126 132 138 151 161 175 232 266 271 273 281 287 287 285 283 284 288 286 286 285 288 291 291 293 293 287 290 296 301 303 305 304 301 299 296 293 297 298 298 299 295 296 299
139 137 143 177 245 253 250 266 273 281 287 288 286 286 288 287 286 287 290 292 289 287 289 290 293 294 286 290 299 302 303 303 301 294 296 299 301 303 301 297 297 299 296
140 142 157 245 271 277 278 274 284 289 290 289 290 291 293 292 289 287 286 288 287 287 289 291 294 296 293 288 288 287 295 298 298 295 295 298 299 297 294 296 297 289 281
141 155 215 259 273 282 285 284 287 292 292 290 289 291 290 291 293 288 283 287 277 283 293 292 291 296 299 297 304 307 304 302 297 303 298 296 294 290 289 290 287 285 286
157 200 249 270 282 290 289 288 288 289 291 292 290 289 289 290 290 292 293 285 286 295 296 296 296 297 298 304 307 308 309 309 309 308 301 299 297 296 297 297 296 293 291
Height
1524 1524 1523 1524 1525 1526 1527 1529 1531 1533 1534 1536 1538 1539 1540 1541 1541 1541 1541 1541 1541 1541 1540 1539 1539 1538 1538 1537 1536 1534 1532 1531 1529 1525 1521 1517 1515 1513 1510 1509 1507 1507 1506
1524 1524 1524 1525 1525 1527 1528 1530 1531 1533 1534 1536 1537 1538 1539 1539 1540 1540 1540 1539 1539 1538 1537 1537 1536 1535 1534 1533 1532 1530 1528 1527 1526 1523 1518 1511 1507 1505 1505 1504 1503 1502 1501
1523 1524 1525 1525 1526 1527 1529 1530 1532 1533 1535 1536 1537 1538 1539 1539 1539 1539 1538 1538 1537 1536 1535 1534 1533 1532 1531 1530 1528 1527 1525 1523 1522 1520 1518 1512 1504 1500 1497 1497 1497 1496 1495
1522 1524 1524 1525 1527 1528 1530 1531 1533 1534 1535 1536 1537 1538 1538 1538 1538 1538 1537 1536 1535 1534 1533 1532 1530 1529 1528 1526 1525 1523 1521 1519 1517 1516 1514 1511 1506 1501 1490 1487 1488 1488 1487
1521 1523 1524 1525 1527 1528 1530 1531 1533 1534 1535 1536 1537 1537 1537 1537 1536 1536 1535 1534 1533 1531 1530 1529 1527 1526 1524 1523 1521 1519 1517 1515 1512 1510 1507 1505 1502 1498 1492 1481 1477 1477 1477
1519 1522 1523 1525 1527 1528 1530 1531 1533 1534 1534 1535 1535 1535 1535 1535 1534 1533 1532 1531 1530 1529 1528 1526 1524 1522 1520 1518 1516 1514 1512 1509 1507 1504 1501 1499 1495 1491 1487 1478 1471 1468 1466
1517 1519 1521 1523 1525 1527 1529 1530 1532 1533 1533 1533 1533 1533 1533 1532 1531 1530 1529 1528 1527 1526 1524 1523 1521 1518 1516 1514 1511 1508 1506 1503 1500 1497 1494 1491 1489 1486 1482 1475 1466 1460 1455
1515 1517 1520 1522 1524 1526 1528 1529 1530 1531 1531 1531 1531 1531 1530 1529 1529 1528 1526 1525 1524 1522 1521 1519 1516 1514 1511 1508 1505 1502 1499 1496 1493 1490 1487 1484 1481 1478 1475 1471 1464 1454 1445
1512 1515 1518 1520 1522 1524 1526 1527 1528 1529 1529 1529 1529 1528 1527 1527 1526 1525 1523 1522 1520 1518 1516 1514 1511 1508 1505 1502 1499 1495 1492 1489 1486 1482 1479 1475 1472 1469 1466 1463 1460 1454 1441
1509 1513 1515 1518 1520 1522 1523 1525 1526 1526 1527 1527 1526 1526 1525 1524 1522 1521 1520 1518 1516 1514 1511 1509 1506 1503 1499 1496 1492 1488 1485 1481 1477 1474 1470 1466 1463 1460 1457 1453 1450 1447 1440
1505 1509 1513 1515 1517 1519 1521 1522 1523 1524 1524 1524 1523 1522 1521 1520 1519 1517 1516 1514 1511 1509 1506 1503 1500 1496 1493 1489 1485 1481 1477 1473 1469 1465 1461 1457 1454 1449 1446 1443 1439 1436 1432
1502 1506 1510 1512 1514 1516 1518 1519 1520 1520 1521 1520 1520 1519 1518 1517 1515 1514 1512 1509 1507 1504 1501 1497 1493 1489 1485 1481 1477 1472 1468 1464 1459 1455 1451 1447 1443 1439 1435 1431 1428 1424 1422
1499 1503 1506 1509 1511 1513 1515 1516 1517 1517 1517 1517 1517 1516 1515 1513 1511 1509 1507 1504 1501 1498 1494 1490 1486 1482 1478 1473 1469 1464 1459 1455 1450 1446 1442 1437 1433 1428 1424 1421 1417 1414 1411
1496 1500 1503 1506 1509 1511 1512 1513 1514 1514 1514 1514 1513 1512 1511 1509 1507 1504 1502 1499 1495 1491 1487 1483 1479 1474 1470 1465 1460 1455 1450 1445 1441 1437 1432 1428 1424 1419 1414 1410 1407 1404 1400
1494 1498 1501 1504 1506 1508 1510 1510 1511 1511 1511 1510 1509 1508 1506 1504 1502 1499 1496 1492 1488 1484 1480 1475 1471 1467 1462 1458 1452 1447 1442 1436 1431 1427 1423 1419 1415 1411 1407 1403 1399 1396 1392
1492 1495 1499 1502 1504 1506 1507 1507 1507 1507 1507 1506 1505 1503 1501 1499 1496 1493 1489 1485 1481 1477 1472 1468 1463 1459 1455 1451 1446 1441 1435 1429 1423 1418 1413 1410 1405 1401 1398 1395 1392 1389 1384
1489 1493 1497 1500 1502 1503 1504 1504 1504 1504 1503 1502 1500 1499 1496 1493 1490 1487 1482 1478 1474 1469 1465 1461 1456 1451 1447 1443 1438 1433 1427 1421 1415 1410 1405 1400 1397 1393 1389 1385 1381 1379 1376
1488 1491 1495 1497 1499 1500 1501 1501 1500 1500 1499 1497 1496 1494 1491 1488 1484 1480 1476 1472 1467 1462 1458 1453 1449 1443 1439 1435 1429 1424 1418 1412 1407 1402 1398 1392 1387 1384 1380 1375 1371 1368 1365
1487 1490 1492 1495 1496 1497 1497 1497 1497 1496 1495 1493 1491 1489 1486 1482 1478 1474 1469 1465 1460 1455 1450 1446 1440 1435 1430 1426 1421 1416 1409 1403 1398 1394 1390 1385 1380 1376 1373 1368 1362 1358 1355
1486 1488 1490 1492 1493 1494 1494 1493 1493 1492 1490 1488 1486 1483 1480 1476 1471 1467 1462 1458 1453 1448 1442 1437 1433 1428 1422 1418 1413 1409 1402 1395 1389 1384 1380 1377 1373 1368 1364 1360 1354 1349 1345
1485 1487 1488 1490 1490 1490 1490 1490 1489 1487 1486 1483 1480 1477 1474 1470 1465 1460 1456 1451 1446 1440 1435 1429 1424 1420 1415 1409 1405 1401 1396 1389 1382 1376 1371 1367 1364 1359 1355 1352 1346 1341 1337
1484 1485 1486 1487 1487 1487 1487 1486 1484 1483 1480 1477 1474 1471 1467 1463 1458 1453 1448 1444 1439 1433 1427 1421 1414 1410 1406 1402 1397 1393 1389 1383 1376 1369 1364 1359 1355 1351 1347 1342 1337 1333 1329
1482 1483 1483 1484 1484 1484 1483 1481 1480 1477 1474 1471 1467 1464 1459 1455 1451 1446 1441 1436 1431 1425 1419 1413 1406 1400 1396 1393 1389 1385 1380 1374 1369 1362 1357 1352 1347 1342 1337 1332 1329 1325 1321
1479 1480 1480 1480 1480 1480 1479 1477 1475 1472 1468 1464 1460 1456 1452 1447 1443 1439 1434 1429 1424 1418 1412 1406 1400 1393 1387 1383 1379 1374 1369 1364 1359 1353 1347 1342 1338 1333 1329 1325 1321 1318 1314
1476 1477 1477 1477 1476 1476 1474 1472 1469 1466 1461 1457 1453 1449 1444 1440 1435 1430 1426 1421 1417 1413 1407 1400 1394 1388 1380 1376 1373 1369 1362 1357 1351 1345 1339 1334 1329 1325 1321 1317 1314 1311 1308
1474 1474 1474 1473 1472 1471 1468 1466 1463 1459 1455 1450 1446 1441 1437 1432 1427 1421 1416 1412 1409 1404 1400 1394 1389 1382 1377 1370 1365 1360 1355 1349 1344 1338 1332 1328 1323 1319 1315 1312 1308 1305 1302